{"data":{"norad_id":40961,"epoch":"2026-09-20T04:27:12.261312Z","epoch_age_seconds":68574,"freshness":"FRESH","line1":"1 40961U 15057D   26263.18555858  .00000419  00000+0  64312-4 0  9995","line2":"2 40961  97.6585 257.8760 0015883 318.4295  41.5708 14.78280777589642","mean_motion":14.78280777,"eccentricity":0.0015883,"inclination_deg":97.6585,"raan_deg":257.876,"arg_perigee_deg":318.4295,"mean_anomaly_deg":41.5708,"bstar":6.4312e-5,"rev_number":58964,"period_min":97.410452899368,"perigee_km":623.61756677918,"apogee_km":645.89472314346,"semimajor_km":7012.8931449613,"source":"CELESTRAK","updated_at":"2026-09-20T09:00:14.108603Z"}}